This is the latest recevied weather packets stored in our database for station/object KC3AWA. If no packets are shown the sender has not sent any weather packets the latest 10 day(s).
| Time | Temp. | Humidity | Pressure | Rain* | Wind** | Luminosity | Snow |
|---|---|---|---|---|---|---|---|
| 1778031224 | 10.56° C | 95% | 1009.6 hPa | 13.72 mm | - | 0 W/m² | - |
| 1778030920 | 11.11° C | 95% | 1009.9 hPa | 10.67 mm | - | 0 W/m² | - |
| 1778030618 | 12.22° C | 95% | 1010.2 hPa | 6.1 mm | - | 0 W/m² | - |
| 1778030315 | 13.33° C | 95% | 1009.6 hPa | 4.83 mm | - | 0 W/m² | - |
| 1778030011 | 13.33° C | 96% | 1009.5 hPa | 1.27 mm | - | 0 W/m² | - |
| 1778029709 | 13.33° C | 96% | 1009.1 hPa | 1.27 mm | - | 0 W/m² | - |
| 1778029407 | 13.33° C | 96% | 1008.9 hPa | 0 mm | - | 0 W/m² | - |
| 1778029103 | 13.33° C | 96% | 1008.8 hPa | 0 mm | - | 0 W/m² | - |
| 1778028800 | 13.33° C | 96% | 1008.8 hPa | 0 mm | - | 0 W/m² | - |
| 1778028496 | 13.33° C | 96% | 1008.8 hPa | 0 mm | - | 0 W/m² | - |
| 1778028194 | 13.33° C | 95% | 1008.4 hPa | 0 mm | - | 0 W/m² | - |
| 1778027889 | 13.33° C | 95% | 1008.9 hPa | 0 mm | - | 0 W/m² | - |
| 1778027587 | 13.33° C | 95% | 1008.5 hPa | 0 mm | - | 0 W/m² | - |
| 1778027282 | 13.33° C | 95% | 1008.5 hPa | 1.78 mm | - | 0 W/m² | - |
| 1778026979 | 13.33° C | 95% | 1008.9 hPa | 1.78 mm | - | 1 W/m² | - |
| 1778026675 | 13.33° C | 95% | 1008.5 hPa | 0 mm | - | 2 W/m² | - |
| 1778026373 | 13.89° C | 94% | 1008.8 hPa | 0 mm | - | 3 W/m² | - |
| 1778026069 | 13.89° C | 94% | 1009 hPa | 0 mm | - | 3 W/m² | - |
| 1778025767 | 13.89° C | 94% | 1009 hPa | 0 mm | - | 4 W/m² | - |
| 1778025463 | 13.89° C | 93% | 1008.8 hPa | 0 mm | - | 8 W/m² | - |
| 1778025161 | 13.89° C | 93% | 1008.9 hPa | 0 mm | - | 9 W/m² | - |
| 1778024858 | 13.89° C | 92% | 1009 hPa | 0 mm | - | 7 W/m² | - |
| 1778024555 | 13.89° C | 92% | 1009.2 hPa | 0 mm | - | 5 W/m² | - |
| 1778024252 | 13.89° C | 92% | 1009.4 hPa | 0 mm | - | 6 W/m² | - |
| 1778023950 | 13.89° C | 91% | 1009.3 hPa | 0 mm | - | 10 W/m² | - |
* Rain latest hour (hover to see other rain measurements)
** Current wind speed in m/s (hover to see current wind gust speed)